FW2418 Weather Reports


time (UTC)temp
C
wind
direction
speed
KPH
gust
KPH
rain 1hr
cm
rain 24hr
cm
rain mn
cm
humidity
%
barometer
mb
20260508221846 29 72 3.2 12.9 0.00 0.00 0.00 75 1008.6
20260508220845 29 111 3.2 12.9 0.00 0.00 0.00 74 1008.3
20260508215845 30 88 3.2 16.1 0.00 0.00 0.00 74 1008.3
20260508214843 30 74 3.2 14.5 0.00 0.00 0.00 72 1008.6
20260508213843 31 82 3.2 12.9 0.00 0.00 0.00 70 1008.6
20260508212811 31 54 4.8 12.9 0.00 0.00 0.00 69 1008.6
20260508211810 31 118 1.6 14.5 0.00 0.00 0.00 71 1008.6
20260508210809 31 96 3.2 11.3 0.00 0.00 0.00 70 1008.6
20260508205808 31 56 4.8 12.9 0.00 0.00 0.00 69 1008.6
20260508204807 31 44 3.2 12.9 0.00 0.00 0.00 68 1008.6
20260508203806 32 118 3.2 8.0 0.00 0.00 0.00 60 1008.6
20260508202734 32 51 1.6 8.0 0.00 0.00 0.00 60 1008.9
20260508201733 32 48 3.2 9.7 0.00 0.00 0.00 61 1008.9
20260508200732 32 59 3.2 11.3 0.00 0.00 0.00 61 1008.9
20260508195731 32 57 3.2 11.3 0.00 0.00 0.00 60 1009.3
20260508194659 33 99 3.2 11.3 0.00 0.00 0.00 60 1009.3
20260508193627 34 29 3.2 11.3 0.00 0.00 0.00 58 1009.3
20260508192626 33 1 1.6 4.8 0.00 0.00 0.00 52 1009.6
20260508191625 33 193 1.6 8.0 0.00 0.00 0.00 55 1009.6
20260508190624 33 320 3.2 12.9 0.00 0.00 0.00 54 1010.0
20260508185521 33 251 1.6 9.7 0.00 0.00 0.00 55 1010.3
20260508184520 33 284 1.6 11.3 0.00 0.00 0.00 55 1010.3
20260508183519 32 315 1.6 6.4 0.00 0.00 0.00 56 1010.6
20260508182518 32 308 1.6 6.4 0.00 0.00 0.00 57 1010.6
20260508181517 32 129 3.2 8.0 0.00 0.00 0.00 59 1011.0
20260508180445 31 24 1.6 4.8 0.00 0.00 0.00 60 1011.3
20260508175445 31 125 1.6 4.8 0.00 0.00 0.00 60 1011.3
20260508174444 31 324 0.0 4.8 0.00 0.00 0.00 62 1011.3
20260508173443 31 356 1.6 4.8 0.00 0.00 0.00 62 1011.3
20260508172442 31 285 1.6 4.8 0.00 0.00 0.00 62 1011.7
20260508171441 31 156 1.6 4.8 0.00 0.00 0.00 62 1011.7
20260508170440 31 282 3.2 9.7 0.00 0.00 0.00 61 1012.0
20260508165439 31 172 1.6 9.7 0.00 0.00 0.00 61 1012.0
20260508164438 31 170 1.6 4.8 0.00 0.00 0.00 61 1012.0
20260508163406 31 269 1.6 3.2 0.00 0.00 0.00 65 1012.3
20260508162405 30 255 0.0 3.2 0.00 0.00 0.00 66 1012.3
20260508161404 30 289 1.6 8.0 0.00 0.00 0.00 67 1012.7
20260508160403 30 316 1.6 8.0 0.00 0.00 0.00 68 1012.7
20260508155402 30 298 1.6 4.8 0.00 0.00 0.00 68 1012.7
20260508154401 30 282 1.6 3.2 0.00 0.00 0.00 68 1013.0
20260508153401 30 294 0.0 4.8 0.00 0.00 0.00 69 1013.0
20260508152400 30 301 3.2 4.8 0.00 0.00 0.00 68 1013.0
20260508151359 30 251 1.6 3.2 0.00 0.00 0.00 68 1013.0
20260508150358 30 264 1.6 4.8 0.00 0.00 0.00 70 1013.0
20260508145357 28 38 3.2 6.4 0.00 0.00 0.00 74 1013.0
20260508144356 28 301 1.6 4.8 0.00 0.00 0.00 78 1013.0
20260508143355 28 252 1.6 4.8 0.00 0.00 0.00 79 1013.3
20260508142323 28 313 0.0 6.4 0.00 0.00 0.00 79 1013.0
20260508141322 27 315 1.6 6.4 0.00 0.00 0.00 82 1013.0
20260508140321 27 293 1.6 6.4 0.00 0.00 0.00 83 1013.0
20260508135321 27 301 3.2 6.4 0.00 0.00 0.00 84 1013.3
20260508134320 27 298 1.6 8.0 0.00 0.00 0.00 85 1013.0
20260508133319 26 292 1.6 8.0 0.00 0.00 0.00 87 1013.0
20260508132318 26 305 3.2 4.8 0.00 0.00 0.00 88 1013.0
20260508131317 26 290 1.6 4.8 0.00 0.00 0.00 89 1013.0
20260508130245 26 289 1.6 4.8 0.00 0.00 0.00 90 1013.0
20260508125244 25 272 1.6 4.8 0.00 0.00 0.00 91 1012.7
20260508124243 25 276 1.6 1.6 0.00 0.00 0.00 92 1013.0
20260508123242 25 270 0.0 1.6 0.00 0.00 0.00 94 1012.7
20260508122210 24 301 1.6 1.6 0.00 0.00 0.00 95 1012.7
20260508121209 23 269 0.0 1.6 0.00 0.00 0.00 95 1012.7
20260508120208 23 255 1.6 1.6 0.00 0.00 0.00 96 1012.7
20260508115136 23 278 1.6 1.6 0.00 0.00 0.00 97 1012.3
20260508114136 22 283 0.0 0.0 0.00 0.00 0.00 97 1012.3
20260508113135 22 284 0.0 0.0 0.00 0.00 0.00 97 1012.3
20260508112134 22 283 0.0 0.0 0.00 0.00 0.00 97 1012.0
20260508111133 21 284 0.0 0.0 0.00 0.00 0.00 98 1012.0
20260508110132 21 284 0.0 0.0 0.00 0.00 0.00 98 1012.0
20260508105132 21 283 0.0 0.0 0.00 0.00 0.00 97 1012.0
20260508104130 21 283 0.0 0.0 0.00 0.00 0.00 97 1011.6
20260508103058 21 284 0.0 0.0 0.00 0.00 0.00 97 1011.7
20260508101955 20 284 0.0 0.0 0.00 0.00 0.00 97 1011.3
20260508100954 21 283 0.0 0.0 0.00 0.00 0.00 97 1011.3
20260508095953 21 284 0.0 0.0 0.00 0.00 0.00 97 1011.3
20260508094952 20 283 0.0 0.0 0.00 0.00 0.00 97 1011.0
20260508093920 21 283 0.0 0.0 0.00 0.00 0.00 97 1011.0
20260508092918 21 284 0.0 0.0 0.00 0.00 0.00 96 1011.0
20260508091917 21 283 0.0 0.0 0.00 0.00 0.00 96 1011.0
20260508090916 21 283 0.0 0.0 0.00 0.00 0.00 96 1011.0
20260508085915 21 284 0.0 0.0 0.00 0.00 0.00 96 1011.0
20260508084915 21 283 0.0 0.0 0.00 0.00 0.00 95 1011.0
20260508083914 21 284 0.0 0.0 0.00 0.00 0.00 96 1011.0
20260508082842 21 284 0.0 0.0 0.00 0.00 0.00 96 1011.0
20260508081810 22 283 0.0 0.0 0.00 0.00 0.00 95 1011.0
20260508080809 22 284 0.0 0.0 0.00 0.00 0.00 95 1011.0
20260508075808 22 284 0.0 0.0 0.00 0.00 0.00 95 1011.0
20260508074807 22 284 0.0 1.6 0.00 0.00 0.00 95 1011.0
20260508073806 22 283 0.0 0.0 0.00 0.00 0.00 94 1011.0
20260508072805 22 284 0.0 0.0 0.00 0.00 0.00 94 1011.0
20260508071804 22 284 0.0 0.0 0.00 0.00 0.00 93 1011.3
20260508070803 22 284 0.0 0.0 0.00 0.00 0.00 93 1011.3
20260508065802 22 284 0.0 1.6 0.00 0.00 0.00 92 1011.3
20260508064729 22 283 0.0 1.6 0.00 0.00 0.00 92 1011.3
20260508063729 22 284 0.0 1.6 0.00 0.00 0.00 92 1011.3
20260508062728 22 283 0.0 1.6 0.00 0.00 0.00 92 1011.3
20260508061727 22 284 0.0 0.0 0.00 0.00 0.00 91 1011.3
20260508060726 22 283 0.0 0.0 0.00 0.00 0.00 91 1011.3
20260508055654 22 283 0.0 0.0 0.00 0.00 0.00 90 1011.3
20260508054551 23 284 0.0 0.0 0.00 0.00 0.00 89 1011.7
20260508053550 23 271 0.0 1.6 0.00 0.00 0.00 88 1011.3
20260508052549 23 271 0.0 1.6 0.00 0.00 0.00 87 1011.7
20260508051548 23 312 0.0 0.0 0.00 0.00 0.00 87 1011.7
20260508050547 23 326 0.0 0.0 0.00 0.00 0.00 86 1011.7
20260508045515 23 326 0.0 1.6 0.00 0.00 0.00 85 1011.7
20260508044515 24 326 0.0 1.6 0.00 0.00 0.00 84 1011.7
20260508043442 24 293 1.6 3.2 0.00 0.00 0.00 83 1011.7
20260508042410 24 295 1.6 3.2 0.00 0.00 0.00 82 1011.7
20260508041409 25 265 1.6 3.2 0.00 0.00 0.00 81 1011.7
20260508040409 25 311 0.0 3.2 0.00 0.00 0.00 80 1011.7
20260508035408 25 284 0.0 3.2 0.00 0.00 0.00 79 1011.7
20260508034407 25 297 1.6 6.4 0.00 0.00 0.00 78 1011.7
20260508033406 25 317 1.6 6.4 0.00 0.00 0.00 77 1011.7
20260508032334 25 309 1.6 4.8 0.00 0.00 0.00 76 1011.7
20260508031230 25 301 1.6 3.2 0.00 0.00 0.00 75 1011.3
20260508030229 25 290 1.6 3.2 0.00 0.00 0.00 74 1011.3
20260508025228 26 286 1.6 3.2 0.00 0.00 0.00 73 1011.3
20260508024228 26 289 1.6 3.2 0.00 0.00 0.00 72 1011.3
20260508023227 26 295 1.6 3.2 0.00 0.00 0.00 70 1011.0
20260508022155 26 293 1.6 3.2 0.00 0.00 0.00 69 1011.0
20260508021122 26 290 1.6 4.8 0.00 0.00 0.00 66 1010.6
20260508020121 26 296 1.6 4.8 0.00 0.00 0.00 64 1010.6
20260508015120 27 307 1.6 4.8 0.00 0.00 0.00 60 1010.6
20260508014120 27 280 1.6 3.2 0.00 0.00 0.00 57 1010.6
20260508013119 27 283 1.6 4.8 0.00 0.00 0.00 54 1010.6
20260508012015 27 285 1.6 4.8 0.00 0.00 0.00 50 1010.3
20260508011014 28 285 1.6 4.8 0.00 0.00 0.00 49 1010.3
20260508010013 28 288 1.6 1.6 0.00 0.00 0.00 48 1010.3
20260508005012 28 288 1.6 1.6 0.00 0.00 0.00 46 1010.3
20260508004011 28 285 1.6 3.2 0.00 0.00 0.00 44 1010.3
20260508003011 29 271 1.6 3.2 0.00 0.00 0.00 43 1009.9
20260508002010 29 301 1.6 3.2 0.00 0.00 0.00 42 1009.9
20260508001009 30 291 1.6 4.8 0.00 0.00 0.00 41 1009.9
20260508000008 30 284 1.6 3.2 0.00 0.00 0.00 40 1009.9
20260507235007 31 281 1.6 3.2 0.00 0.00 0.00 38 1009.9
20260507234007 31 274 1.6 4.8 0.00 0.00 0.00 36 1009.6
20260507232935 31 282 1.6 4.8 0.00 0.00 0.00 34 1009.9
20260507231934 32 269 1.6 6.4 0.00 0.00 0.00 33 1009.6
20260507230901 32 318 3.2 6.4 0.00 0.00 0.00 33 1009.6
20260507225727 32 261 1.6 6.4 0.00 0.00 0.00 32 1009.6
20260507224726 32 276 1.6 6.4 0.00 0.00 0.00 32 1009.6
20260507223726 33 292 3.2 6.4 0.00 0.00 0.00 31 1009.6